Regional Weather Roundup
Issued by NWS

Home | Current Version | Previous Version | Graphics & Text | Print | Product List | Glossary On
Versions: 1 2 3 4 5 6 7 8 9 10 11 12 13 14 15 16 17 18 19 20 21 22 23 24 25 26 27 28 29 30 31 32 33 34 35 36 37 38 39 40 41 42 43 44 45 46 47 48 49 50
000
ASUS45 KABQ 140510
RWRNM
WEATHER ROUNDUP FOR NEW MEXICO
NATIONAL WEATHER SERVICE ALBUQUERQUE NM
1100 PM MDT SUN JUL 13 2014

NOTE: "FAIR" MEANS FEW OR NO CLOUDS BELOW 12,000 FEET AGL WITH NO
       SIGNIFICANT WEATHER OR OBSTRUCTIONS TO VISION.

      THIS PRODUCT IS RELEASED AS TWO VERSIONS.  ONE VERSION NEAR
      THE TOP OF THE HOUR CONTAINING PRELIMINARY DATA FROM ALBUQUERQUE
      AND OTHER STATIONS.  A FINAL VERSION WITH ADDITIONAL DATA IS
      ISSUED ABOUT 10 MINUTES AFTER THE HOUR.

NMZ501-503-504-510>518-140600-
NORTHWEST PLATEAU/NORTHCENTRAL MOUNTAINS

CITY           SKY/WX    TMP DP  RH WIND       PRES   REMARKS
FARMINGTON     CLEAR     76  48  37 SE9       30.23R
LOS ALAMOS     CLOUDY    64  52  64 S7        30.42R
SANTA FE       CLOUDY    63  54  72 S8        30.36R
TAOS             N/A    N/A N/A N/A MISG        N/A
ANGEL FIRE     CLOUDY    58  55  88 CALM      30.53R

$$
NMZ402-403-502-505>509-140600-
WESTCENTRAL MOUNTAINS/SOUTHWEST MOUNTAINS

CITY           SKY/WX    TMP DP  RH WIND       PRES   REMARKS
GALLUP         LGT RAIN  63  55  75 S12       30.37F
GRANTS         CLOUDY    62  57  84 W22G28    30.40R
SILVER CITY    CLOUDY    72  50  46 SE18G36   30.29R THUNDER

$$
NMZ407-409-411-412-140600-
SOUTHERN DESERTS

CITY           SKY/WX    TMP DP  RH WIND       PRES   REMARKS
LORDSBURG      FAIR      75  59  57 NW6       30.17R
DEMING         MOCLDY    77  60  55 NW8       30.16R
LAS CRUCES     MOCLDY    81  55  40 NE6       30.17R
HOLLOMAN AFB   PTCLDY    73  56  54 S12       30.16R
ALAMOGORDO     PTCLDY    68  57  68 SW3       30.17R
T OR C         CLOUDY    72  58  61 W15G24    30.22R

$$
NMZ519>523-140600-
CENTRAL VALLEYS/CENTRAL HIGHLANDS

CITY           SKY/WX    TMP DP  RH WIND       PRES   REMARKS
ALBUQUERQUE    CLOUDY    72  54  53 E10       30.27R
DOUBLE EAGLE   CLOUDY    70  53  54 W3        30.32R
MORIARTY ARPT  FAIR      59  56  88 CALM      30.37S
CLINES CORNERS CLOUDY    59  54  83 E7        30.39R
BELEN          CLOUDY    71  56  59 S7        30.28R
SOCORRO        FAIR      73  56  54 CALM      30.23S

$$
NMZ524>526-539-540-140600-
SOUTHCENTRAL MOUNTAINS

CITY           SKY/WX    TMP DP  RH WIND       PRES   REMARKS
RUIDOSO        MOCLDY    59  55  88 SW7       30.40R

$$
NMZ527>531-140600-
NORTHEAST HIGHLANDS/NORTHEAST PLAINS

CITY           SKY/WX    TMP DP  RH WIND       PRES   REMARKS
LAS VEGAS      MOCLDY    59  56  89 NE5       30.41R
RATON          CLOUDY    65  60  84 N3        30.36R
CLAYTON        MOCLDY    67  58  72 N6        30.27R

$$
NMZ532>537-140600-
EASTCENTRAL PLAINS

CITY           SKY/WX    TMP DP  RH WIND       PRES   REMARKS
TUCUMCARI      MOCLDY    75  57  53 W5        30.20R
CANNON AFB     MOCLDY    74  63  68 E5        30.21R
CLOVIS AIRPORT NOT AVBL

$$
NMZ028-029-538-140600-
SOUTHEAST PLAINS

CITY           SKY/WX    TMP DP  RH WIND       PRES   REMARKS
ROSWELL        MOCLDY    80  55  42 N15       30.16R
ARTESIA        CLEAR     81  52  36 SE6       30.13R
CARLSBAD       CLEAR     85  54  34 SE12      30.10R
HOBBS          CLEAR     77  54  44 SE5       30.17R


$$



USA.gov is the U.S. government's official web portal to all federal, state and local government web resources and services.